Terminal Aerodrome Forecast
Issued by NWS

Home | Current Version | Previous Version | Graphics & Text | Print | Product List | Glossary On
Versions: 1 2 3 4 5 6 7 8 9 10 11 12 13 14 15 16 17
219
FTUS43 KTOP 142051 AAA
TAFMHK
TAF AMD
KMHK 142051Z 1421/1518 22010KT P6SM VCSH SCT050 BKN080
      TEMPO 1421/1424 2SM TSRA BKN025CB
     FM150000 31015G20KT P6SM VCSH BKN025
     FM150300 32017G23KT P6SM BKN050
     FM151000 32008KT P6SM FEW250=

USA.gov is the U.S. government's official web portal to all federal, state and local government web resources and services.